カタログに戻る

KL-ALPHA B

運用中科学PO
NORAD 44786·PAYLOAD·🇩🇪 Germany

打ち上げ Nov 17, 2019 から Jiuquan Satellite Launch Center

Loading…

次のパス (今後24時間)

TLE

最新Source: Space-Track

元期: Sep 14, 2026, 13:28 UTC

1 44786U 19077B   26257.56160912 -.00000026  00000-0 -54134-4 0  9996
2 44786  88.9175 210.2680 0024173 249.2581 110.5982 13.56008694337298

AllMySatでKL-ALPHA Bをリアルタイム追跡

Download on the App Store